M I D A S
Marine Information and Data Acquisition System
Tripno 1648 of the Zeeleeuw from 2009-02-27 08:53:17 to 2009-02-27 17:11:21
Back to CruiseResearch ActivitiesStationsMapUnderway DataData graphs

EquipmentUnitsComments
TimeDGPSUTC
LatitudeDGPSDM.mWGS84
LongitudeDGPSDM.mWGS84
SpeedMeteo Stationm/sRelative wind speed
DirectionMeteo StationdegRelative wind direction
TemperatureMeteo Stationdeg CelciusAir temperature
PressureMeteo StationPaAtmospheric pressure
HumidityMeteo Station%Relative humidity
Missing or incorrect values are displayed as -999
Metereological data collected by the RV Zeeleeuw from 2009-02-27 08:38:06 to 2009-02-27 17:10:25
Time Latitude Longitude Speed Direction Temperature Pressure Humidity
2009-02-27 08:39 51°13.674 2°55.925 -999 -999 -999 -999 -999
2009-02-27 08:40 51°13.697 2°55.852 -999 -999 -999 -999 -999
2009-02-27 08:41 51°13.701 2°55.773 -999 -999 -999 -999 -999
2009-02-27 08:42 51°13.708 2°55.758 -999 -999 -999 -999 -999
2009-02-27 08:43 51°13.707 2°55.754 -999 -999 -999 -999 -999
2009-02-27 08:44 51°13.745 2°55.716 -999 -999 -999 -999 -999
2009-02-27 08:45 51°13.85 2°55.623 -999 -999 -999 -999 -999
2009-02-27 08:46 51°13.973 2°55.532 -999 -999 -999 -999 -999
2009-02-27 08:47 51°14.097 2°55.44 -999 -999 -999 -999 -999
2009-02-27 08:48 51°14.224 2°55.323 -999 -999 -999 -999 -999
2009-02-27 08:49 51°14.336 2°55.155 -999 -999 -999 -999 -999
2009-02-27 08:50 51°14.44 2°54.943 -999 -999 -999 -999 -999
2009-02-27 08:51 51°14.595 2°54.779 -999 -999 -999 -999 -999
2009-02-27 08:52 51°14.763 2°54.618 -999 -999 -999 -999 -999
2009-02-27 08:53 51°14.933 2°54.461 -999 -999 -999 -999 -999
2009-02-27 08:54 51°15.106 2°54.307 -999 -999 -999 -999 -999
2009-02-27 08:55 51°15.277 2°54.154 -999 -999 -999 -999 -999
2009-02-27 08:56 51°15.445 2°53.99 -999 -999 -999 -999 -999
2009-02-27 08:57 51°15.611 2°53.827 -999 -999 -999 -999 -999
2009-02-27 08:58 51°15.781 2°53.67 -999 -999 -999 -999 -999
2009-02-27 08:59 51°15.951 2°53.51 -999 -999 -999 -999 -999
2009-02-27 09:00 51°16.122 2°53.356 -999 -999 -999 -999 -999
2009-02-27 09:01 51°16.296 2°53.212 -999 -999 -999 -999 -999
2009-02-27 09:02 51°16.473 2°53.088 -999 -999 -999 -999 -999
2009-02-27 09:03 51°16.653 2°52.972 -999 -999 -999 -999 -999
2009-02-27 09:04 51°16.827 2°52.851 -999 -999 -999 -999 -999
2009-02-27 09:05 51°16.992 2°52.723 -999 -999 -999 -999 -999
2009-02-27 09:06 51°17.155 2°52.594 -999 -999 -999 -999 -999
2009-02-27 09:07 51°17.32 2°52.472 -999 -999 -999 -999 -999
2009-02-27 09:08 51°17.484 2°52.336 -999 -999 -999 -999 -999
2009-02-27 09:09 51°17.642 2°52.18 -999 -999 -999 -999 -999
2009-02-27 09:10 51°17.795 2°52.013 -999 -999 -999 -999 -999
2009-02-27 09:11 51°17.95 2°51.85 -999 -999 -999 -999 -999
2009-02-27 09:12 51°18.105 2°51.684 -999 -999 -999 -999 -999
2009-02-27 09:13 51°18.258 2°51.504 -999 -999 -999 -999 -999
2009-02-27 09:14 51°18.411 2°51.326 -999 -999 -999 -999 -999
2009-02-27 09:15 51°18.562 2°51.154 -999 -999 -999 -999 -999
2009-02-27 09:16 51°18.657 2°51.166 -999 -999 -999 -999 -999
2009-02-27 09:17 51°18.785 2°51.038 -999 -999 -999 -999 -999
2009-02-27 09:18 51°18.932 2°50.845 -999 -999 -999 -999 -999
2009-02-27 09:19 51°19.083 2°50.641 -999 -999 -999 -999 -999
2009-02-27 09:20 51°19.235 2°50.436 -999 -999 -999 -999 -999
2009-02-27 09:21 51°19.391 2°50.239 -999 -999 -999 -999 -999
2009-02-27 09:22 51°19.55 2°50.048 -999 -999 -999 -999 -999
2009-02-27 09:23 51°19.712 2°49.862 -999 -999 -999 -999 -999
2009-02-27 09:24 51°19.878 2°49.679 -999 -999 -999 -999 -999
2009-02-27 09:25 51°20.047 2°49.502 -999 -999 -999 -999 -999
2009-02-27 09:26 51°20.216 2°49.323 -999 -999 -999 -999 -999
2009-02-27 09:27 51°20.382 2°49.143 -999 -999 -999 -999 -999
2009-02-27 09:28 51°20.552 2°48.972 -999 -999 -999 -999 -999
2009-02-27 09:29 51°20.725 2°48.806 -999 -999 -999 -999 -999
2009-02-27 09:30 51°20.9 2°48.644 -999 -999 -999 -999 -999
2009-02-27 09:31 51°21.08 2°48.502 -999 -999 -999 -999 -999
2009-02-27 09:32 51°21.26 2°48.36 -999 -999 -999 -999 -999
2009-02-27 09:33 51°21.44 2°48.212 -999 -999 -999 -999 -999
2009-02-27 09:34 51°21.617 2°48.06 -999 -999 -999 -999 -999
2009-02-27 09:35 51°21.795 2°47.906 -999 -999 -999 -999 -999
2009-02-27 09:36 51°21.976 2°47.758 -999 -999 -999 -999 -999
2009-02-27 09:37 51°22.155 2°47.613 -999 -999 -999 -999 -999
2009-02-27 09:38 51°22.33 2°47.475 -999 -999 -999 -999 -999
2009-02-27 09:39 51°22.5 2°47.334 -999 -999 -999 -999 -999
2009-02-27 09:40 51°22.671 2°47.19 -999 -999 -999 -999 -999
2009-02-27 09:41 51°22.839 2°47.037 -999 -999 -999 -999 -999
2009-02-27 09:42 51°23.01 2°46.888 -999 -999 -999 -999 -999
2009-02-27 09:43 51°23.18 2°46.736 -999 -999 -999 -999 -999
2009-02-27 09:44 51°23.334 2°46.542 -999 -999 -999 -999 -999
2009-02-27 09:45 51°23.455 2°46.277 -999 -999 -999 -999 -999
2009-02-27 09:46 51°23.541 2°45.968 -999 -999 -999 -999 -999
2009-02-27 09:47 51°23.619 2°45.648 -999 -999 -999 -999 -999
2009-02-27 09:48 51°23.73 2°45.362 -999 -999 -999 -999 -999
2009-02-27 09:49 51°23.893 2°45.201 -999 -999 -999 -999 -999
2009-02-27 09:50 51°24.071 2°45.21 -999 -999 -999 -999 -999
2009-02-27 09:51 51°24.229 2°45.337 -999 -999 -999 -999 -999
2009-02-27 09:52 51°24.359 2°45.513 -999 -999 -999 -999 -999
2009-02-27 09:53 51°24.471 2°45.723 -999 -999 -999 -999 -999
2009-02-27 09:54 51°24.571 2°45.951 -999 -999 -999 -999 -999
2009-02-27 09:55 51°24.669 2°46.185 -999 -999 -999 -999 -999
2009-02-27 09:56 51°24.77 2°46.417 -999 -999 -999 -999 -999
2009-02-27 09:57 51°24.869 2°46.642 -999 -999 -999 -999 -999
2009-02-27 09:58 51°24.967 2°46.876 -999 -999 -999 -999 -999
2009-02-27 09:59 51°25.061 2°47.111 -999 -999 -999 -999 -999
2009-02-27 10:00 51°25.159 2°47.34 -999 -999 -999 -999 -999
2009-02-27 10:01 51°25.258 2°47.572 -999 -999 -999 -999 -999
2009-02-27 10:02 51°25.354 2°47.808 -999 -999 -999 -999 -999
2009-02-27 10:03 51°25.447 2°48.045 -999 -999 -999 -999 -999
2009-02-27 10:04 51°25.536 2°48.286 -999 -999 -999 -999 -999
2009-02-27 10:05 51°25.618 2°48.534 -999 -999 -999 -999 -999
2009-02-27 10:06 51°25.696 2°48.772 -999 -999 -999 -999 -999
2009-02-27 10:07 51°25.778 2°49.022 -999 -999 -999 -999 -999
2009-02-27 10:08 51°25.86 2°49.262 -999 -999 -999 -999 -999
2009-02-27 10:09 51°25.94 2°49.512 -999 -999 -999 -999 -999
2009-02-27 10:10 51°26.014 2°49.756 -999 -999 -999 -999 -999
2009-02-27 10:11 51°26.095 2°50.001 -999 -999 -999 -999 -999
2009-02-27 10:12 51°26.171 2°50.251 -999 -999 -999 -999 -999
2009-02-27 10:13 51°26.248 2°50.504 -999 -999 -999 -999 -999
2009-02-27 10:14 51°26.328 2°50.755 -999 -999 -999 -999 -999
2009-02-27 10:15 51°26.414 2°51.001 -999 -999 -999 -999 -999
2009-02-27 10:16 51°26.505 2°51.243 -999 -999 -999 -999 -999
2009-02-27 10:17 51°26.594 2°51.487 -999 -999 -999 -999 -999
2009-02-27 10:18 51°26.687 2°51.73 -999 -999 -999 -999 -999
2009-02-27 10:19 51°26.773 2°51.971 -999 -999 -999 -999 -999
2009-02-27 10:20 51°26.861 2°52.217 -999 -999 -999 -999 -999
2009-02-27 10:21 51°26.947 2°52.453 -999 -999 -999 -999 -999
2009-02-27 10:22 51°27.036 2°52.695 -999 -999 -999 -999 -999
2009-02-27 10:23 51°27.12 2°52.944 -999 -999 -999 -999 -999
2009-02-27 10:24 51°27.205 2°53.193 -999 -999 -999 -999 -999
2009-02-27 10:25 51°27.29 2°53.438 -999 -999 -999 -999 -999
2009-02-27 10:26 51°27.377 2°53.679 -999 -999 -999 -999 -999
2009-02-27 10:27 51°27.463 2°53.922 -999 -999 -999 -999 -999
2009-02-27 10:28 51°27.55 2°54.16 -999 -999 -999 -999 -999
2009-02-27 10:29 51°27.64 2°54.403 -999 -999 -999 -999 -999
2009-02-27 10:30 51°27.724 2°54.644 -999 -999 -999 -999 -999
2009-02-27 10:31 51°27.807 2°54.887 -999 -999 -999 -999 -999
2009-02-27 10:32 51°27.892 2°55.126 -999 -999 -999 -999 -999
2009-02-27 10:33 51°27.982 2°55.361 -999 -999 -999 -999 -999
2009-02-27 10:34 51°28.077 2°55.596 -999 -999 -999 -999 -999
2009-02-27 10:35 51°28.168 2°55.828 -999 -999 -999 -999 -999
2009-02-27 10:36 51°28.261 2°56.059 -999 -999 -999 -999 -999
2009-02-27 10:37 51°28.355 2°56.294 -999 -999 -999 -999 -999
2009-02-27 10:38 51°28.451 2°56.526 -999 -999 -999 -999 -999
2009-02-27 10:39 51°28.545 2°56.759 -999 -999 -999 -999 -999
2009-02-27 10:40 51°28.643 2°56.991 -999 -999 -999 -999 -999
2009-02-27 10:41 51°28.737 2°57.227 -999 -999 -999 -999 -999
2009-02-27 10:42 51°28.831 2°57.463 -999 -999 -999 -999 -999
2009-02-27 10:43 51°28.923 2°57.701 -999 -999 -999 -999 -999
2009-02-27 10:44 51°29.016 2°57.934 -999 -999 -999 -999 -999
2009-02-27 10:45 51°29.111 2°58.177 -999 -999 -999 -999 -999
2009-02-27 10:46 51°29.206 2°58.417 -999 -999 -999 -999 -999
2009-02-27 10:47 51°29.298 2°58.658 -999 -999 -999 -999 -999
2009-02-27 10:48 51°29.393 2°58.901 -999 -999 -999 -999 -999
2009-02-27 10:49 51°29.489 2°59.145 -999 -999 -999 -999 -999
2009-02-27 10:50 51°29.585 2°59.391 -999 -999 -999 -999 -999
2009-02-27 10:51 51°29.679 2°59.634 -999 -999 -999 -999 -999
2009-02-27 10:52 51°29.771 2°59.882 -999 -999 -999 -999 -999
2009-02-27 10:53 51°29.863 3°0.13 -999 -999 -999 -999 -999
2009-02-27 10:54 51°29.957 3°0.377 -999 -999 -999 -999 -999
2009-02-27 10:55 51°30.051 3°0.623 -999 -999 -999 -999 -999
2009-02-27 10:56 51°30.147 3°0.869 -999 -999 -999 -999 -999
2009-02-27 10:57 51°30.24 3°1.116 -999 -999 -999 -999 -999
2009-02-27 10:58 51°30.334 3°1.37 -999 -999 -999 -999 -999
2009-02-27 10:59 51°30.425 3°1.611 -999 -999 -999 -999 -999
2009-02-27 11:00 51°30.52 3°1.858 -999 -999 -999 -999 -999
2009-02-27 11:01 51°30.616 3°2.101 -999 -999 -999 -999 -999
2009-02-27 11:02 51°30.712 3°2.346 -999 -999 -999 -999 -999
2009-02-27 11:03 51°30.807 3°2.595 -999 -999 -999 -999 -999
2009-02-27 11:04 51°30.901 3°2.843 -999 -999 -999 -999 -999
2009-02-27 11:05 51°30.996 3°3.089 -999 -999 -999 -999 -999
2009-02-27 11:06 51°31.09 3°3.338 -999 -999 -999 -999 -999
2009-02-27 11:07 51°31.185 3°3.59 -999 -999 -999 -999 -999
2009-02-27 11:08 51°31.282 3°3.84 -999 -999 -999 -999 -999
2009-02-27 11:09 51°31.379 3°4.092 -999 -999 -999 -999 -999
2009-02-27 11:10 51°31.477 3°4.348 -999 -999 -999 -999 -999
2009-02-27 11:11 51°31.572 3°4.599 -999 -999 -999 -999 -999
2009-02-27 11:12 51°31.67 3°4.844 -999 -999 -999 -999 -999
2009-02-27 11:13 51°31.77 3°5.091 -999 -999 -999 -999 -999
2009-02-27 11:14 51°31.872 3°5.337 -999 -999 -999 -999 -999
2009-02-27 11:15 51°31.972 3°5.589 -999 -999 -999 -999 -999
2009-02-27 11:16 51°32.073 3°5.843 -999 -999 -999 -999 -999
2009-02-27 11:17 51°32.175 3°6.094 -999 -999 -999 -999 -999
2009-02-27 11:18 51°32.275 3°6.34 -999 -999 -999 -999 -999
2009-02-27 11:19 51°32.415 3°6.5 -999 -999 -999 -999 -999
2009-02-27 11:20 51°32.553 3°6.321 -999 -999 -999 -999 -999
2009-02-27 11:21 51°32.677 3°6.067 -999 -999 -999 -999 -999
2009-02-27 11:22 51°32.782 3°5.789 -999 -999 -999 -999 -999
2009-02-27 11:23 51°32.882 3°5.501 -999 -999 -999 -999 -999
2009-02-27 11:24 51°32.982 3°5.22 -999 -999 -999 -999 -999
2009-02-27 11:25 51°33.087 3°4.943 -999 -999 -999 -999 -999
2009-02-27 11:26 51°33.189 3°4.665 -999 -999 -999 -999 -999
2009-02-27 11:27 51°33.277 3°4.382 -999 -999 -999 -999 -999
2009-02-27 11:28 51°33.338 3°4.077 -999 -999 -999 -999 -999
2009-02-27 11:29 51°33.36 3°3.748 -999 -999 -999 -999 -999
2009-02-27 11:30 51°33.336 3°3.423 -999 -999 -999 -999 -999
2009-02-27 11:31 51°33.234 3°3.125 -999 -999 -999 -999 -999
2009-02-27 11:32 51°33.123 3°2.828 -999 -999 -999 -999 -999
2009-02-27 11:33 51°33.009 3°2.532 -999 -999 -999 -999 -999
2009-02-27 11:34 51°32.9 3°2.23 -999 -999 -999 -999 -999
2009-02-27 11:35 51°32.799 3°1.927 -999 -999 -999 -999 -999
2009-02-27 11:36 51°32.698 3°1.617 -999 -999 -999 -999 -999
2009-02-27 11:37 51°32.595 3°1.309 -999 -999 -999 -999 -999
2009-02-27 11:38 51°32.491 3°1.003 -999 -999 -999 -999 -999
2009-02-27 11:39 51°32.387 3°0.696 -999 -999 -999 -999 -999
2009-02-27 11:40 51°32.286 3°0.387 -999 -999 -999 -999 -999
2009-02-27 11:41 51°32.186 3°0.074 -999 -999 -999 -999 -999
2009-02-27 11:42 51°32.085 2°59.763 -999 -999 -999 -999 -999
2009-02-27 11:43 51°31.979 2°59.456 -999 -999 -999 -999 -999
2009-02-27 11:44 51°31.868 2°59.152 -999 -999 -999 -999 -999
2009-02-27 11:45 51°31.765 2°58.84 -999 -999 -999 -999 -999
2009-02-27 11:46 51°31.66 2°58.529 -999 -999 -999 -999 -999
2009-02-27 11:47 51°31.553 2°58.214 -999 -999 -999 -999 -999
2009-02-27 11:48 51°31.451 2°57.908 -999 -999 -999 -999 -999
2009-02-27 11:49 51°31.344 2°57.599 -999 -999 -999 -999 -999
2009-02-27 11:50 51°31.238 2°57.292 -999 -999 -999 -999 -999
2009-02-27 11:51 51°31.139 2°56.981 -999 -999 -999 -999 -999
2009-02-27 11:52 51°31.04 2°56.67 -999 -999 -999 -999 -999
2009-02-27 11:53 51°30.941 2°56.359 -999 -999 -999 -999 -999
2009-02-27 11:54 51°30.84 2°56.054 -999 -999 -999 -999 -999
2009-02-27 11:55 51°30.73 2°55.76 -999 -999 -999 -999 -999
2009-02-27 11:56 51°30.621 2°55.466 -999 -999 -999 -999 -999
2009-02-27 11:57 51°30.513 2°55.18 -999 -999 -999 -999 -999
2009-02-27 11:58 51°30.416 2°54.889 -999 -999 -999 -999 -999
2009-02-27 11:59 51°30.317 2°54.602 -999 -999 -999 -999 -999
2009-02-27 12:00 51°30.219 2°54.315 -999 -999 -999 -999 -999
2009-02-27 12:01 51°30.118 2°54.031 -999 -999 -999 -999 -999
2009-02-27 12:02 51°30.023 2°53.748 -999 -999 -999 -999 -999
2009-02-27 12:03 51°29.923 2°53.467 -999 -999 -999 -999 -999
2009-02-27 12:04 51°29.826 2°53.185 -999 -999 -999 -999 -999
2009-02-27 12:05 51°29.73 2°52.904 -999 -999 -999 -999 -999
2009-02-27 12:06 51°29.632 2°52.624 -999 -999 -999 -999 -999
2009-02-27 12:07 51°29.535 2°52.344 -999 -999 -999 -999 -999
2009-02-27 12:08 51°29.438 2°52.065 -999 -999 -999 -999 -999
2009-02-27 12:09 51°29.343 2°51.786 -999 -999 -999 -999 -999
2009-02-27 12:10 51°29.244 2°51.511 -999 -999 -999 -999 -999
2009-02-27 12:11 51°29.146 2°51.235 -999 -999 -999 -999 -999
2009-02-27 12:12 51°29.047 2°50.961 -999 -999 -999 -999 -999
2009-02-27 12:13 51°28.952 2°50.682 -999 -999 -999 -999 -999
2009-02-27 12:14 51°28.854 2°50.404 -999 -999 -999 -999 -999
2009-02-27 12:15 51°28.759 2°50.127 -999 -999 -999 -999 -999
2009-02-27 12:16 51°28.664 2°49.852 -999 -999 -999 -999 -999
2009-02-27 12:17 51°28.567 2°49.579 -999 -999 -999 -999 -999
2009-02-27 12:18 51°28.47 2°49.302 -999 -999 -999 -999 -999
2009-02-27 12:19 51°28.375 2°49.035 -999 -999 -999 -999 -999
2009-02-27 12:20 51°28.284 2°48.761 -999 -999 -999 -999 -999
2009-02-27 12:21 51°28.193 2°48.487 -999 -999 -999 -999 -999
2009-02-27 12:22 51°28.103 2°48.21 -999 -999 -999 -999 -999
2009-02-27 12:23 51°28.016 2°47.93 -999 -999 -999 -999 -999
2009-02-27 12:24 51°27.919 2°47.658 -999 -999 -999 -999 -999
2009-02-27 12:25 51°27.823 2°47.387 -999 -999 -999 -999 -999
2009-02-27 12:26 51°27.727 2°47.113 -999 -999 -999 -999 -999
2009-02-27 12:27 51°27.634 2°46.839 -999 -999 -999 -999 -999
2009-02-27 12:28 51°27.539 2°46.567 -999 -999 -999 -999 -999
2009-02-27 12:29 51°27.439 2°46.301 -999 -999 -999 -999 -999
2009-02-27 12:30 51°27.338 2°46.037 -999 -999 -999 -999 -999
2009-02-27 12:31 51°27.241 2°45.77 -999 -999 -999 -999 -999
2009-02-27 12:32 51°27.142 2°45.506 -999 -999 -999 -999 -999
2009-02-27 12:33 51°27.044 2°45.242 -999 -999 -999 -999 -999
2009-02-27 12:34 51°26.945 2°44.981 -999 -999 -999 -999 -999
2009-02-27 12:35 51°26.847 2°44.719 -999 -999 -999 -999 -999
2009-02-27 12:36 51°26.749 2°44.46 -999 -999 -999 -999 -999
2009-02-27 12:37 51°26.651 2°44.201 -999 -999 -999 -999 -999
2009-02-27 12:38 51°26.553 2°43.945 -999 -999 -999 -999 -999
2009-02-27 12:39 51°26.455 2°43.689 -999 -999 -999 -999 -999
2009-02-27 12:40 51°26.357 2°43.437 -999 -999 -999 -999 -999
2009-02-27 12:41 51°26.347 2°43.159 -999 -999 -999 -999 -999
2009-02-27 12:42 51°26.491 2°42.949 -999 -999 -999 -999 -999
2009-02-27 12:43 51°26.664 2°42.776 -999 -999 -999 -999 -999
2009-02-27 12:44 51°26.848 2°42.63 -999 -999 -999 -999 -999
2009-02-27 12:45 51°27.035 2°42.482 -999 -999 -999 -999 -999
2009-02-27 12:46 51°27.22 2°42.327 -999 -999 -999 -999 -999
2009-02-27 12:47 51°27.402 2°42.184 -999 -999 -999 -999 -999
2009-02-27 12:48 51°27.594 2°42.145 -999 -999 -999 -999 -999
2009-02-27 12:49 51°27.715 2°42.429 -999 -999 -999 -999 -999
2009-02-27 12:50 51°27.821 2°42.738 -999 -999 -999 -999 -999
2009-02-27 12:51 51°27.927 2°43.054 -999 -999 -999 -999 -999
2009-02-27 12:52 51°28.035 2°43.367 -999 -999 -999 -999 -999
2009-02-27 12:53 51°28.144 2°43.681 -999 -999 -999 -999 -999
2009-02-27 12:54 51°28.249 2°44.001 -999 -999 -999 -999 -999
2009-02-27 12:55 51°28.356 2°44.323 -999 -999 -999 -999 -999
2009-02-27 12:56 51°28.463 2°44.645 -999 -999 -999 -999 -999
2009-02-27 12:57 51°28.577 2°44.963 -999 -999 -999 -999 -999
2009-02-27 12:58 51°28.69 2°45.284 -999 -999 -999 -999 -999
2009-02-27 12:59 51°28.802 2°45.605 -999 -999 -999 -999 -999
2009-02-27 13:00 51°28.911 2°45.932 -999 -999 -999 -999 -999
2009-02-27 13:01 51°29.018 2°46.259 -999 -999 -999 -999 -999
2009-02-27 13:02 51°29.129 2°46.586 -999 -999 -999 -999 -999
2009-02-27 13:03 51°29.239 2°46.91 -999 -999 -999 -999 -999
2009-02-27 13:04 51°29.35 2°47.232 -999 -999 -999 -999 -999
2009-02-27 13:05 51°29.463 2°47.551 -999 -999 -999 -999 -999
2009-02-27 13:06 51°29.583 2°47.867 -999 -999 -999 -999 -999
2009-02-27 13:07 51°29.693 2°48.189 -999 -999 -999 -999 -999
2009-02-27 13:08 51°29.801 2°48.514 -999 -999 -999 -999 -999
2009-02-27 13:09 51°29.912 2°48.838 -999 -999 -999 -999 -999
2009-02-27 13:10 51°30.024 2°49.158 -999 -999 -999 -999 -999
2009-02-27 13:11 51°30.136 2°49.479 -999 -999 -999 -999 -999
2009-02-27 13:12 51°30.252 2°49.795 -999 -999 -999 -999 -999
2009-02-27 13:13 51°30.363 2°50.118 -999 -999 -999 -999 -999
2009-02-27 13:14 51°30.476 2°50.438 -999 -999 -999 -999 -999
2009-02-27 13:15 51°30.589 2°50.754 -999 -999 -999 -999 -999
2009-02-27 13:16 51°30.703 2°51.072 -999 -999 -999 -999 -999
2009-02-27 13:17 51°30.813 2°51.392 -999 -999 -999 -999 -999
2009-02-27 13:18 51°30.924 2°51.716 -999 -999 -999 -999 -999
2009-02-27 13:19 51°31.035 2°52.042 -999 -999 -999 -999 -999
2009-02-27 13:20 51°31.148 2°52.365 -999 -999 -999 -999 -999
2009-02-27 13:21 51°31.259 2°52.687 -999 -999 -999 -999 -999
2009-02-27 13:22 51°31.374 2°53.009 -999 -999 -999 -999 -999
2009-02-27 13:23 51°31.507 2°53.306 -999 -999 -999 -999 -999
2009-02-27 13:24 51°31.693 2°53.504 -999 -999 -999 -999 -999
2009-02-27 13:25 51°31.893 2°53.661 -999 -999 -999 -999 -999
2009-02-27 13:26 51°32.098 2°53.798 -999 -999 -999 -999 -999
2009-02-27 13:27 51°32.304 2°53.93 -999 -999 -999 -999 -999
2009-02-27 13:28 51°32.508 2°54.065 -999 -999 -999 -999 -999
2009-02-27 13:29 51°32.714 2°54.202 -999 -999 -999 -999 -999
2009-02-27 13:30 51°32.918 2°54.345 -999 -999 -999 -999 -999
2009-02-27 13:31 51°33.118 2°54.507 -999 -999 -999 -999 -999
2009-02-27 13:32 51°33.311 2°54.691 -999 -999 -999 -999 -999
2009-02-27 13:33 51°33.5 2°54.903 -999 -999 -999 -999 -999
2009-02-27 13:34 51°33.683 2°55.109 -999 -999 -999 -999 -999
2009-02-27 13:35 51°33.869 2°55.315 -999 -999 -999 -999 -999
2009-02-27 13:36 51°34.059 2°55.52 -999 -999 -999 -999 -999
2009-02-27 13:37 51°34.247 2°55.724 -999 -999 -999 -999 -999
2009-02-27 13:38 51°34.294 2°56.042 -999 -999 -999 -999 -999
2009-02-27 13:39 51°34.204 2°56.353 -999 -999 -999 -999 -999
2009-02-27 13:40 51°34.111 2°56.667 -999 -999 -999 -999 -999
2009-02-27 13:41 51°34.018 2°56.987 -999 -999 -999 -999 -999
2009-02-27 13:42 51°33.923 2°57.3 -999 -999 -999 -999 -999
2009-02-27 13:43 51°33.831 2°57.616 -999 -999 -999 -999 -999
2009-02-27 13:44 51°33.733 2°57.925 -999 -999 -999 -999 -999
2009-02-27 13:45 51°33.642 2°58.241 -999 -999 -999 -999 -999
2009-02-27 13:46 51°33.683 2°58.589 -999 -999 -999 -999 -999
2009-02-27 13:47 51°33.796 2°58.913 -999 -999 -999 -999 -999
2009-02-27 13:48 51°33.917 2°59.228 -999 -999 -999 -999 -999
2009-02-27 13:49 51°34.04 2°59.543 -999 -999 -999 -999 -999
2009-02-27 13:50 51°34.153 2°59.866 -999 -999 -999 -999 -999
2009-02-27 13:51 51°34.267 3°0.191 -999 -999 -999 -999 -999
2009-02-27 13:52 51°34.383 3°0.512 -999 -999 -999 -999 -999
2009-02-27 13:53 51°34.494 3°0.834 -999 -999 -999 -999 -999
2009-02-27 13:54 51°34.635 3°1.11 -999 -999 -999 -999 -999
2009-02-27 13:55 51°34.813 3°1.067 -999 -999 -999 -999 -999
2009-02-27 13:56 51°34.93 3°0.837 -999 -999 -999 -999 -999
2009-02-27 13:57 51°35.057 3°0.606 -999 -999 -999 -999 -999
2009-02-27 13:58 51°35.186 3°0.379 -999 -999 -999 -999 -999
2009-02-27 13:59 51°35.313 3°0.147 -999 -999 -999 -999 -999
2009-02-27 14:00 51°35.444 2°59.918 -999 -999 -999 -999 -999
2009-02-27 14:01 51°35.575 2°59.688 -999 -999 -999 -999 -999
2009-02-27 14:02 51°35.697 2°59.452 -999 -999 -999 -999 -999
2009-02-27 14:03 51°35.733 2°59.194 -999 -999 -999 -999 -999
2009-02-27 14:04 51°35.686 2°58.936 -999 -999 -999 -999 -999
2009-02-27 14:05 51°35.614 2°58.694 -999 -999 -999 -999 -999
2009-02-27 14:06 51°35.527 2°58.463 -999 -999 -999 -999 -999
2009-02-27 14:07 51°35.435 2°58.233 -999 -999 -999 -999 -999
2009-02-27 14:08 51°35.345 2°58.003 -999 -999 -999 -999 -999
2009-02-27 14:09 51°35.258 2°57.77 -999 -999 -999 -999 -999
2009-02-27 14:10 51°35.172 2°57.532 -999 -999 -999 -999 -999
2009-02-27 14:11 51°35.083 2°57.299 -999 -999 -999 -999 -999
2009-02-27 14:12 51°34.994 2°57.065 -999 -999 -999 -999 -999
2009-02-27 14:13 51°34.911 2°56.826 -999 -999 -999 -999 -999
2009-02-27 14:14 51°34.826 2°56.59 -999 -999 -999 -999 -999
2009-02-27 14:15 51°34.736 2°56.353 -999 -999 -999 -999 -999
2009-02-27 14:16 51°34.653 2°56.114 -999 -999 -999 -999 -999
2009-02-27 14:17 51°34.567 2°55.879 -999 -999 -999 -999 -999
2009-02-27 14:18 51°34.484 2°55.643 -999 -999 -999 -999 -999
2009-02-27 14:19 51°34.401 2°55.408 -999 -999 -999 -999 -999
2009-02-27 14:20 51°34.321 2°55.175 -999 -999 -999 -999 -999
2009-02-27 14:21 51°34.241 2°54.938 -999 -999 -999 -999 -999
2009-02-27 14:22 51°34.159 2°54.704 -999 -999 -999 -999 -999
2009-02-27 14:23 51°34.076 2°54.474 -999 -999 -999 -999 -999
2009-02-27 14:24 51°33.996 2°54.238 -999 -999 -999 -999 -999
2009-02-27 14:25 51°33.914 2°54.005 -999 -999 -999 -999 -999
2009-02-27 14:26 51°33.829 2°53.773 -999 -999 -999 -999 -999
2009-02-27 14:27 51°33.746 2°53.538 -999 -999 -999 -999 -999
2009-02-27 14:28 51°33.663 2°53.304 -999 -999 -999 -999 -999
2009-02-27 14:29 51°33.583 2°53.066 -999 -999 -999 -999 -999
2009-02-27 14:30 51°33.502 2°52.826 -999 -999 -999 -999 -999
2009-02-27 14:31 51°33.419 2°52.586 -999 -999 -999 -999 -999
2009-02-27 14:32 51°33.334 2°52.346 -999 -999 -999 -999 -999
2009-02-27 14:33 51°33.252 2°52.105 -999 -999 -999 -999 -999
2009-02-27 14:34 51°33.167 2°51.865 -999 -999 -999 -999 -999
2009-02-27 14:35 51°33.086 2°51.623 -999 -999 -999 -999 -999
2009-02-27 14:36 51°33.002 2°51.381 -999 -999 -999 -999 -999
2009-02-27 14:37 51°32.924 2°51.136 -999 -999 -999 -999 -999
2009-02-27 14:38 51°32.844 2°50.892 -999 -999 -999 -999 -999
2009-02-27 14:39 51°32.76 2°50.648 -999 -999 -999 -999 -999
2009-02-27 14:40 51°32.679 2°50.4 -999 -999 -999 -999 -999
2009-02-27 14:41 51°32.598 2°50.154 -999 -999 -999 -999 -999
2009-02-27 14:42 51°32.515 2°49.911 -999 -999 -999 -999 -999
2009-02-27 14:43 51°32.435 2°49.664 -999 -999 -999 -999 -999
2009-02-27 14:44 51°32.351 2°49.418 -999 -999 -999 -999 -999
2009-02-27 14:45 51°32.268 2°49.17 -999 -999 -999 -999 -999
2009-02-27 14:46 51°32.181 2°48.933 -999 -999 -999 -999 -999
2009-02-27 14:47 51°32.094 2°48.69 -999 -999 -999 -999 -999
2009-02-27 14:48 51°32.013 2°48.455 -999 -999 -999 -999 -999
2009-02-27 14:49 51°31.929 2°48.214 -999 -999 -999 -999 -999
2009-02-27 14:50 51°31.84 2°47.977 -999 -999 -999 -999 -999
2009-02-27 14:51 51°31.755 2°47.737 -999 -999 -999 -999 -999
2009-02-27 14:52 51°31.671 2°47.497 -999 -999 -999 -999 -999
2009-02-27 14:53 51°31.588 2°47.258 -999 -999 -999 -999 -999
2009-02-27 14:54 51°31.5 2°47.025 -999 -999 -999 -999 -999
2009-02-27 14:55 51°31.413 2°46.788 -999 -999 -999 -999 -999
2009-02-27 14:56 51°31.327 2°46.55 -999 -999 -999 -999 -999
2009-02-27 14:57 51°31.243 2°46.313 -999 -999 -999 -999 -999
2009-02-27 14:58 51°31.158 2°46.074 -999 -999 -999 -999 -999
2009-02-27 14:59 51°31.071 2°45.836 -999 -999 -999 -999 -999
2009-02-27 15:00 51°30.981 2°45.603 -999 -999 -999 -999 -999
2009-02-27 15:01 51°30.892 2°45.367 -999 -999 -999 -999 -999
2009-02-27 15:02 51°30.804 2°45.13 -999 -999 -999 -999 -999
2009-02-27 15:03 51°30.714 2°44.893 -999 -999 -999 -999 -999
2009-02-27 15:04 51°30.627 2°44.656 -999 -999 -999 -999 -999
2009-02-27 15:05 51°30.537 2°44.423 -999 -999 -999 -999 -999
2009-02-27 15:06 51°30.444 2°44.191 -999 -999 -999 -999 -999
2009-02-27 15:07 51°30.351 2°43.963 -999 -999 -999 -999 -999
2009-02-27 15:08 51°30.26 2°43.733 -999 -999 -999 -999 -999
2009-02-27 15:09 51°30.174 2°43.499 -999 -999 -999 -999 -999
2009-02-27 15:10 51°30.086 2°43.267 -999 -999 -999 -999 -999
2009-02-27 15:11 51°29.999 2°43.033 -999 -999 -999 -999 -999
2009-02-27 15:12 51°29.912 2°42.801 -999 -999 -999 -999 -999
2009-02-27 15:13 51°29.822 2°42.568 -999 -999 -999 -999 -999
2009-02-27 15:14 51°29.735 2°42.335 -999 -999 -999 -999 -999
2009-02-27 15:15 51°29.645 2°42.107 -999 -999 -999 -999 -999
2009-02-27 15:16 51°29.556 2°41.88 -999 -999 -999 -999 -999
2009-02-27 15:17 51°29.47 2°41.647 -999 -999 -999 -999 -999
2009-02-27 15:18 51°29.383 2°41.417 -999 -999 -999 -999 -999
2009-02-27 15:19 51°29.297 2°41.187 -999 -999 -999 -999 -999
2009-02-27 15:20 51°29.21 2°40.959 -999 -999 -999 -999 -999
2009-02-27 15:21 51°29.124 2°40.728 -999 -999 -999 -999 -999
2009-02-27 15:22 51°29.036 2°40.499 -999 -999 -999 -999 -999
2009-02-27 15:23 51°28.948 2°40.268 -999 -999 -999 -999 -999
2009-02-27 15:24 51°28.862 2°40.032 -999 -999 -999 -999 -999
2009-02-27 15:25 51°28.772 2°39.8 -999 -999 -999 -999 -999
2009-02-27 15:26 51°28.685 2°39.565 -999 -999 -999 -999 -999
2009-02-27 15:27 51°28.565 2°39.393 -999 -999 -999 -999 -999
2009-02-27 15:28 51°28.394 2°39.421 -999 -999 -999 -999 -999
2009-02-27 15:29 51°28.216 2°39.482 -999 -999 -999 -999 -999
2009-02-27 15:30 51°28.039 2°39.537 -999 -999 -999 -999 -999
2009-02-27 15:31 51°27.862 2°39.611 -999 -999 -999 -999 -999
2009-02-27 15:32 51°27.695 2°39.734 -999 -999 -999 -999 -999
2009-02-27 15:33 51°27.533 2°39.873 -999 -999 -999 -999 -999
2009-02-27 15:34 51°27.362 2°40.021 -999 -999 -999 -999 -999
2009-02-27 15:35 51°27.201 2°40.158 -999 -999 -999 -999 -999
2009-02-27 15:36 51°27.035 2°40.307 -999 -999 -999 -999 -999
2009-02-27 15:37 51°26.868 2°40.455 -999 -999 -999 -999 -999
2009-02-27 15:38 51°26.701 2°40.598 -999 -999 -999 -999 -999
2009-02-27 15:39 51°26.532 2°40.736 -999 -999 -999 -999 -999
2009-02-27 15:40 51°26.363 2°40.876 -999 -999 -999 -999 -999
2009-02-27 15:41 51°26.193 2°41.014 -999 -999 -999 -999 -999
2009-02-27 15:42 51°26.021 2°41.142 -999 -999 -999 -999 -999
2009-02-27 15:43 51°25.845 2°41.283 -999 -999 -999 -999 -999
2009-02-27 15:44 51°25.681 2°41.421 -999 -999 -999 -999 -999
2009-02-27 15:45 51°25.514 2°41.564 -999 -999 -999 -999 -999
2009-02-27 15:46 51°25.347 2°41.709 -999 -999 -999 -999 -999
2009-02-27 15:47 51°25.185 2°41.872 -999 -999 -999 -999 -999
2009-02-27 15:48 51°25.035 2°42.069 -999 -999 -999 -999 -999
2009-02-27 15:49 51°24.883 2°42.271 -999 -999 -999 -999 -999
2009-02-27 15:50 51°24.734 2°42.465 -999 -999 -999 -999 -999
2009-02-27 15:51 51°24.579 2°42.655 -999 -999 -999 -999 -999
2009-02-27 15:52 51°24.423 2°42.843 -999 -999 -999 -999 -999
2009-02-27 15:53 51°24.267 2°43.035 -999 -999 -999 -999 -999
2009-02-27 15:54 51°24.11 2°43.237 -999 -999 -999 -999 -999
2009-02-27 15:55 51°23.956 2°43.43 -999 -999 -999 -999 -999
2009-02-27 15:56 51°23.798 2°43.62 -999 -999 -999 -999 -999
2009-02-27 15:57 51°23.639 2°43.811 -999 -999 -999 -999 -999
2009-02-27 15:58 51°23.47 2°43.967 -999 -999 -999 -999 -999
2009-02-27 15:59 51°23.296 2°44.115 -999 -999 -999 -999 -999
2009-02-27 16:00 51°23.124 2°44.266 -999 -999 -999 -999 -999
2009-02-27 16:01 51°22.944 2°44.39 -999 -999 -999 -999 -999
2009-02-27 16:02 51°22.769 2°44.509 -999 -999 -999 -999 -999
2009-02-27 16:03 51°22.591 2°44.628 -999 -999 -999 -999 -999
2009-02-27 16:04 51°22.412 2°44.744 -999 -999 -999 -999 -999
2009-02-27 16:05 51°22.233 2°44.868 -999 -999 -999 -999 -999
2009-02-27 16:06 51°22.059 2°44.988 -999 -999 -999 -999 -999
2009-02-27 16:07 51°21.882 2°45.11 -999 -999 -999 -999 -999
2009-02-27 16:08 51°21.702 2°45.233 -999 -999 -999 -999 -999
2009-02-27 16:09 51°21.527 2°45.347 -999 -999 -999 -999 -999
2009-02-27 16:10 51°21.347 2°45.467 -999 -999 -999 -999 -999
2009-02-27 16:11 51°21.174 2°45.591 -999 -999 -999 -999 -999
2009-02-27 16:12 51°20.999 2°45.713 -999 -999 -999 -999 -999
2009-02-27 16:13 51°20.821 2°45.833 -999 -999 -999 -999 -999
2009-02-27 16:14 51°20.639 2°45.956 -999 -999 -999 -999 -999
2009-02-27 16:15 51°20.466 2°46.093 -999 -999 -999 -999 -999
2009-02-27 16:16 51°20.296 2°46.249 -999 -999 -999 -999 -999
2009-02-27 16:17 51°20.126 2°46.406 -999 -999 -999 -999 -999
2009-02-27 16:18 51°19.957 2°46.562 -999 -999 -999 -999 -999
2009-02-27 16:19 51°19.781 2°46.705 -999 -999 -999 -999 -999
2009-02-27 16:20 51°19.611 2°46.856 -999 -999 -999 -999 -999
2009-02-27 16:21 51°19.439 2°47.009 -999 -999 -999 -999 -999
2009-02-27 16:22 51°19.274 2°47.165 -999 -999 -999 -999 -999
2009-02-27 16:23 51°19.107 2°47.333 -999 -999 -999 -999 -999
2009-02-27 16:24 51°18.938 2°47.504 -999 -999 -999 -999 -999
2009-02-27 16:25 51°18.774 2°47.675 -999 -999 -999 -999 -999
2009-02-27 16:26 51°18.607 2°47.835 -999 -999 -999 -999 -999
2009-02-27 16:27 51°18.442 2°47.993 -999 -999 -999 -999 -999
2009-02-27 16:28 51°18.275 2°48.152 -999 -999 -999 -999 -999
2009-02-27 16:29 51°18.108 2°48.309 -999 -999 -999 -999 -999
2009-02-27 16:30 51°17.938 2°48.465 -999 -999 -999 -999 -999
2009-02-27 16:31 51°17.77 2°48.622 -999 -999 -999 -999 -999
2009-02-27 16:32 51°17.605 2°48.774 -999 -999 -999 -999 -999
2009-02-27 16:33 51°17.436 2°48.934 -999 -999 -999 -999 -999
2009-02-27 16:34 51°17.265 2°49.084 -999 -999 -999 -999 -999
2009-02-27 16:35 51°17.097 2°49.248 -999 -999 -999 -999 -999
2009-02-27 16:36 51°16.934 2°49.408 -999 -999 -999 -999 -999
2009-02-27 16:37 51°16.766 2°49.569 -999 -999 -999 -999 -999
2009-02-27 16:38 51°16.6 2°49.73 -999 -999 -999 -999 -999
2009-02-27 16:39 51°16.424 2°49.888 -999 -999 -999 -999 -999
2009-02-27 16:40 51°16.253 2°50.045 -999 -999 -999 -999 -999
2009-02-27 16:41 51°16.1 2°50.237 -999 -999 -999 -999 -999
2009-02-27 16:42 51°16.017 2°50.526 -999 -999 -999 -999 -999
2009-02-27 16:43 51°15.95 2°50.843 -999 -999 -999 -999 -999
2009-02-27 16:44 51°15.88 2°51.149 -999 -999 -999 -999 -999
2009-02-27 16:45 51°15.807 2°51.456 -999 -999 -999 -999 -999
2009-02-27 16:46 51°15.737 2°51.763 -999 -999 -999 -999 -999
2009-02-27 16:47 51°15.657 2°52.057 -999 -999 -999 -999 -999
2009-02-27 16:48 51°15.566 2°52.357 -999 -999 -999 -999 -999
2009-02-27 16:49 51°15.465 2°52.629 -999 -999 -999 -999 -999
2009-02-27 16:50 51°15.35 2°52.898 -999 -999 -999 -999 -999
2009-02-27 16:51 51°15.235 2°53.159 -999 -999 -999 -999 -999
2009-02-27 16:52 51°15.117 2°53.408 -999 -999 -999 -999 -999
2009-02-27 16:53 51°14.998 2°53.672 -999 -999 -999 -999 -999
2009-02-27 16:54 51°14.885 2°53.923 -999 -999 -999 -999 -999
2009-02-27 16:55 51°14.777 2°54.195 -999 -999 -999 -999 -999
2009-02-27 16:56 51°14.665 2°54.45 -999 -999 -999 -999 -999
2009-02-27 16:57 51°14.544 2°54.704 -999 -999 -999 -999 -999
2009-02-27 16:58 51°14.421 2°54.942 -999 -999 -999 -999 -999
2009-02-27 16:59 51°14.306 2°55.176 -999 -999 -999 -999 -999
2009-02-27 17:00 51°14.189 2°55.35 -999 -999 -999 -999 -999
2009-02-27 17:01 51°14.069 2°55.452 -999 -999 -999 -999 -999
2009-02-27 17:02 51°13.941 2°55.547 -999 -999 -999 -999 -999
2009-02-27 17:03 51°13.833 2°55.629 -999 -999 -999 -999 -999
2009-02-27 17:04 51°13.748 2°55.73 -999 -999 -999 -999 -999
2009-02-27 17:05 51°13.69 2°55.844 -999 -999 -999 -999 -999
2009-02-27 17:06 51°13.666 2°55.94 -999 -999 -999 -999 -999
2009-02-27 17:07 51°13.663 2°55.957 -999 -999 -999 -999 -999
2009-02-27 17:08 51°13.663 2°55.959 -999 -999 -999 -999 -999
2009-02-27 17:09 51°13.663 2°55.958 -999 -999 -999 -999 -999
2009-02-27 17:10 51°13.663 2°55.959 -999 -999 -999 -999 -999